Mountain Home, Arkansas, United States (72653)
Lat: 36.34N, Lon: 92.39W
Wx Zone: ARZ005
Local Info
Past Weather Observations for Saturday, April 19, 2014

NOTE: This archive is for the closest National Weather Service station to Mountain Home. Information may differ from the station used for current weather conditions.

Time Weather Temperature Dewpoint Humidity Pressure Winds Precip Visibility
23:53
Clear
61°F / 16°C 43°F / 6°C 52% 30.15 in
(1021 mb)
SE 3.5 mph
(SE 6 kph)
- 10SM
22:53
Clear
61°F / 16°C 43°F / 6°C 52% 30.15 in
(1021 mb)
SE 4.6 mph
(SE 7 kph)
- 10SM
21:53
Clear
63°F / 17°C 43°F / 6°C 49% 30.15 in
(1021 mb)
SE 5.8 mph
(SE 9 kph)
- 10SM
20:53
Clear
64°F / 18°C 43°F / 6°C 46% 30.15 in
(1021 mb)
SE 5.8 mph
(SE 9 kph)
- 10SM
19:53
Clear
68°F / 20°C 43°F / 6°C 40% 30.12 in
(1020 mb)
SE 6.9 mph
(SE 11 kph)
- 10SM
18:53
Clear
70°F / 21°C 43°F / 6°C 38% 30.12 in
(1020 mb)
SE 3.5 mph
(SE 6 kph)
- 9SM
17:53
Clear
73°F / 23°C 41°F / 5°C 31% 30.12 in
(1020 mb)
SE 4.6 mph
(SE 7 kph)
- 9SM
16:53
Clear
75°F / 24°C 39°F / 4°C 27% 30.12 in
(1020 mb)
Variable 6.9 mph
(Variable 11 kph)
- 9SM
15:53
Clear
77°F / 25°C 41°F / 5°C 28% 30.12 in
(1020 mb)
Calm - 9SM
14:53
Clear
75°F / 24°C 41°F / 5°C 29% 30.15 in
(1021 mb)
SW 6.9 mph
(SW 11 kph)
- 9SM
13:53
Clear
75°F / 24°C 43°F / 6°C 31% 30.15 in
(1021 mb)
Variable 4.6 mph
(Variable 7 kph)
- 9SM
12:53
Clear
75°F / 24°C 43°F / 6°C 31% 30.21 in
(1023 mb)
ESE 6.9 mph
(ESE 11 kph)
- 9SM
11:53
Clear
73°F / 23°C 41°F / 5°C 31% 30.21 in
(1023 mb)
S 9.2 mph
(S 15 kph)
- 10SM
10:53
Clear
72°F / 22°C 43°F / 6°C 36% 30.24 in
(1024 mb)
Variable 3.5 mph
(Variable 6 kph)
- 10SM
09:53
Clear
70°F / 21°C 43°F / 6°C 38% 30.24 in
(1024 mb)
SSE 5.8 mph
(SSE 9 kph)
- 10SM
08:53
Clear
64°F / 18°C 43°F / 6°C 46% 30.24 in
(1024 mb)
E 5.8 mph
(E 9 kph)
- 9SM
07:53
Clear
61°F / 16°C 43°F / 6°C 52% 30.24 in
(1024 mb)
E 6.9 mph
(E 11 kph)
- 9SM
06:53
Clear
55°F / 13°C 43°F / 6°C 63% 30.24 in
(1024 mb)
Calm - 9SM
05:53
Clear
50°F / 10°C 41°F / 5°C 71% 30.24 in
(1024 mb)
Calm - 9SM
04:53
Clear
50°F / 10°C 39°F / 4°C 67% 30.21 in
(1023 mb)
Calm - 10SM
03:53
Clear
52°F / 11°C 39°F / 4°C 62% 30.21 in
(1023 mb)
Calm - 10SM
02:53
Clear
52°F / 11°C 41°F / 5°C 67% 30.21 in
(1023 mb)
NE 3.5 mph
(NE 6 kph)
- 10SM
01:53
Clear
54°F / 12°C 41°F / 5°C 63% 30.18 in
(1022 mb)
ENE 3.5 mph
(ENE 6 kph)
- 10SM
00:53
Clear
55°F / 13°C 41°F / 5°C 59% 30.21 in
(1023 mb)
Calm - 10SM
Time Weather Temperature Dewpoint Humidity Pressure Winds Precip Visibility


Weather for websites

WeatherForYou.com, LLC is not responsible for any damages or problems caused by this service. Current weather conditions are obtained from the closest station including government and personal stations which may have varying degrees of accuracy. Weather forecasts are derived from the NOAA NDFD. Like all things, this site belongs to Jesus Christ... He just trusts me to maintain it. If you have any questions or comments email webmaster@weatherforyou.com

Copyright © 2014, WeatherForYou.com LLC. All rights reserved.